sat.trackr.live / text

‹ back to catalog

HULIANWANG DIGUI-89

NORAD 65997 · 2025-231C

PAYLOAD ACTIVE UNKNOWN

§ Identity

Operator
Country
PRC
Launch date
2025-10-16
Launch site
WSC
Launch vehicle
Mass (kg)
RCS (m²)

External: N2YO · Heavens-Above · Gunter

§ Orbital elements

Epoch: 2026-05-25T00:02:13.709184Z

Period
108.33 min
Inclination
49.9970°
Eccentricity
0.0000926
Mean motion
13.29327221 rev/d
Perigee alt
1,148.6 km
Apogee alt
1,150.0 km
Semi-major
7,527.4 km
B*
3.7422e-5
RAAN
258.8703°
Arg perigee
152.2276°
Mean anomaly
207.8645°
Rev number
2,980

§ Raw data

HULIANWANG DIGUI-891 65997U 25231C   26145.00154756 -.00000107  00000+0  37422-4 0  99952 65997  49.9970 258.8703 0000926 152.2276 207.8645 13.29327221 29804

JSON: /api/v1/satellites/65997 · /tle

For live sub-satellite position, see the globe view (requires WebGL).

§ Visibility from observer

Set your observer location to see the next 7 days of passes ≥ 10°. The values pass through the URL so the page stays shareable.

No JS? Fill the form by hand. The geolocation button needs JavaScript.